[[{"header":{"parameterUnit":"m.s-1","parameterCategory":1,"la1":30.2991,"la2":30.254,"lo1":-89.0895,"lo2":-89.0444,"dy":0.0017,"dx":0.0017,"nx":28,"ny":28,"refTime":"2024-09-24T21:00:00:Z","depth":0,"parameterNumber":2,"parameterNumberName":"U-component_of_WINDS"},"data":[0,0,0,0,0,0,0,0,0,0,0,0,0,0,0,0,0,0,0,0,0,0,0,0,0,0,0,0,0,0,0,0,0,0,0,0,0,0,0,0,0,0,0,0,0,0,0,0,0,0,0,0,0,0,0,0,0,0,1.6,1.6,0,1.598,1.598,1.598,1.5955,1.5955,1.5954,1.5954,1.5932,1.5932,1.5932,0,0,0,0,0,0,0,0,0,0,0,0,0,1.6013,1.6013,1.6,1.6,1.6,1.598,1.598,1.598,1.5955,1.5955,1.5954,1.5954,1.5933,1.5932,1.5932,0,0,0,0,0,0,0,0,0,0,0,0,0,1.6002,1.6013,1.6,1.5985,1.5983,1.598,1.598,1.598,1.5955,1.5955,1.5954,1.5953,1.5933,1.5932,1.5932,1.5942,0,0,1.5931,1.5931,0,0,0,0,0,0,0,0,1.6003,1.6001,1.5987,1.5986,1.5984,1.597,1.5977,1.5967,1.5955,1.5966,1.5954,1.5953,1.5945,1.5944,1.5941,1.5941,1.594,1.5931,1.5931,1.5931,1.5931,0,0,0,0,0,0,0,1.6003,1.6002,1.5992,1.5987,1.5985,1.5978,1.5976,1.5975,1.5959,1.5965,1.5963,1.5961,1.5944,1.5942,1.5941,1.594,1.5931,1.5931,1.5931,1.5931,1.5944,1.5944,0,0,0,0,0,0,1.6007,1.6003,1.5993,1.5992,1.5992,1.5978,1.5976,1.5975,1.5959,1.5956,1.5962,1.596,1.5943,1.5941,1.594,1.5949,1.5931,1.593,1.593,1.5943,1.5944,1.5944,0,0,0,0,0,0,1.6007,1.6006,1.5994,1.5997,1.5995,1.5979,1.5978,1.5975,1.5972,1.5957,1.5953,1.5962,1.5942,1.594,1.5941,1.5948,1.593,1.593,1.5943,1.5943,1.5944,1.5968,0,0,0,0,0,0,1.6008,1.6006,1.6011,1.5997,1.5995,1.5996,1.5978,1.5975,1.5972,1.597,1.5956,1.5953,1.5941,1.5942,1.5941,1.5947,1.593,1.5942,1.5943,1.5944,1.5966,1.5969,1.5972,0,0,0,0,0,1.6008,1.6019,1.6011,1.601,1.6,1.5997,1.5995,1.5981,1.5973,1.5976,1.5966,1.5954,1.5947,1.5942,1.5941,1.5947,1.5941,1.5943,1.5944,1.5965,1.5969,1.5972,0,0,0,0,0,0,1.6034,1.6017,1.6008,1.6015,1.6007,1.5993,1.5997,1.5986,1.5981,1.5979,1.5962,1.5959,1.5961,1.5954,1.5949,1.5954,1.5942,1.5943,1.5959,1.5962,1.5965,1.5966,1.593,0,0,0,0,0,1.604,1.604,1.6024,1.6031,1.6028,1.6013,1.6011,1.6001,1.5993,1.5989,1.5979,1.5971,1.5966,1.5964,1.5959,1.5965,1.5961,1.5968,1.5971,1.5974,1.5974,1.5974,1.5977,1.5948,1.5948,1.5948,0,0,1.6053,1.6044,1.6045,1.6036,1.6029,1.6028,1.6011,1.6011,1.6009,1.5989,1.5989,1.5981,1.597,1.5973,1.5974,1.5967,1.5981,1.5975,1.5977,1.5977,1.5976,1.5979,1.5981,1.5949,1.5949,1.5949,0,0,1.6076,1.607,1.6074,1.6067,1.6057,1.6046,1.6047,1.6034,1.6027,1.6027,1.6011,1.6009,1.6003,1.5995,1.599,1.6008,1.5996,1.6007,1.6021,1.6021,1.6023,1.6025,1.603,1.6032,1.6008,1.6008,1.6008,0,1.6094,1.6092,1.6078,1.6078,1.6074,1.6055,1.6058,1.6052,1.6041,1.6038,1.6031,1.6021,1.6013,1.6012,1.6016,1.6014,1.6013,1.6008,1.6025,1.6026,1.6028,1.6032,1.6034,1.6009,1.6009,1.6009,1.6009,0,1.6113,1.6112,1.6116,1.6105,1.6102,1.6103,1.6088,1.6086,1.6075,1.6065,1.6064,1.6053,1.6045,1.6044,1.6034,1.6041,1.6037,1.6028,1.6015,1.6032,1.6036,1.6037,1.6011,1.6011,1.601,1.601,0,0,1.6153,1.6132,1.6134,1.6128,1.6114,1.6112,1.6112,1.6104,1.6102,1.6094,1.6092,1.6086,1.6077,1.6071,1.606,1.6061,1.6073,1.605,1.605,1.6054,1.6078,1.6085,1.6087,1.6065,1.6065,1.6066,1.6078,0,1.6172,1.6171,1.6157,1.616,1.6157,1.6139,1.6139,1.613,1.612,1.6115,1.6104,1.6099,1.6088,1.6084,1.6084,1.6072,1.6077,1.6071,1.6062,1.6062,1.6064,1.6089,1.6097,1.6109,1.608,1.608,1.608,0,1.6195,1.6188,1.619,1.6175,1.6173,1.6173,1.6163,1.616,1.6148,1.6141,1.6134,1.6121,1.6118,1.6107,1.6102,1.6097,1.6093,1.6086,1.6086,1.6084,1.6072,1.6086,1.6113,1.6115,1.6083,1.6082,1.6082,0,1.6221,1.6213,1.6212,1.6208,1.619,1.619,1.6182,1.617,1.6165,1.6157,1.6153,1.6144,1.6139,1.6132,1.6116,1.611,1.6112,1.61,1.6105,1.6105,1.6106,1.6106,1.6131,1.6105,1.6105,1.6105,1.6105,0,1.6244,1.6246,1.6224,1.6224,1.6224,1.6207,1.6208,1.6199,1.6188,1.6184,1.6168,1.6165,1.6145,1.6139,1.6127,1.6123,1.6122,1.6114,1.6111,1.6115,1.6116,1.6112,1.611,1.6105,1.6105,1.6105,1.6105,0,1.6274,1.6259,1.6257,1.624,1.6235,1.6237,1.6221,1.622,1.6208,1.6204,1.6202,1.6184,1.6176,1.616,1.6147,1.6139,1.6138,1.6132,1.6142,1.6139,1.6145,1.6144,1.6167,1.6168,1.6143,1.6143,1.6143,0,1.6288,1.6289,1.6272,1.6268,1.6261,1.6256,1.6251,1.6234,1.6229,1.6215,1.6214,1.6205,1.6197,1.6185,1.617,1.616,1.6153,1.6162,1.6151,1.6155,1.6151,1.6151,1.615,1.6164,1.6164,1.6165,1.6165,0,1.6316,1.6308,1.6302,1.6292,1.6287,1.6278,1.6269,1.6267,1.6247,1.6242,1.6234,1.6228,1.6214,1.6205,1.6192,1.6183,1.617,1.6168,1.6168,1.6173,1.6177,1.6173,1.6147,1.6168,1.6167,1.6167,1.6167,1.6167,1.6337,1.6337,1.6324,1.6316,1.6308,1.6299,1.6296,1.6284,1.6277,1.6265,1.6255,1.6247,1.6233,1.6215,1.6206,1.6199,1.6193,1.6194,1.6193,1.6194,1.6195,1.6179,1.6196,1.6196,1.6196,1.6196,1.6196,0,1.6363,1.6353,1.6347,1.6334,1.6328,1.6317,1.6305,1.63,1.6294,1.6282,1.6274,1.6263,1.6254,1.6237,1.6226,1.6223,1.6216,1.622,1.622,1.6217,1.6202,1.6202,1.6225,1.6225,1.6225,1.6225,1.6225,1.6225,1.6375,1.6372,1.6363,1.6355,1.6345,1.6337,1.6332,1.6323,1.6313,1.6302,1.6294,1.6284,1.6269,1.6256,1.6246,1.6242,1.6237,1.6243,1.6236,1.6222,1.6219,1.6216,1.6216,1.6242,1.6242,1.6252,1.6252,1.6253]},{"header":{"parameterUnit":"m.s-1","parameterCategory":1,"la1":30.2991,"la2":30.254,"lo1":-89.0895,"lo2":-89.0444,"dy":0.0017,"dx":0.0017,"nx":28,"ny":28,"refTime":"2024-09-24T21:00:00:Z","depth":0,"parameterNumber":3,"parameterNumberName":"V-component_of_WINDS"},"data":[0,0,0,0,0,0,0,0,0,0,0,0,0,0,0,0,0,0,0,0,0,0,0,0,0,0,0,0,0,0,0,0,0,0,0,0,0,0,0,0,0,0,0,0,0,0,0,0,0,0,0,0,0,0,0,0,0,0,1.3337,1.3337,0,1.3318,1.3317,1.3317,1.3289,1.3288,1.3288,1.3287,1.3266,1.3266,1.3266,0,0,0,0,0,0,0,0,0,0,0,0,0,1.3347,1.3347,1.3337,1.3337,1.3337,1.3318,1.3317,1.3317,1.3289,1.3288,1.3288,1.3287,1.3266,1.3266,1.3266,0,0,0,0,0,0,0,0,0,0,0,0,0,1.3336,1.3347,1.3337,1.332,1.3319,1.3318,1.3317,1.3317,1.3289,1.3288,1.3288,1.3287,1.3266,1.3266,1.3266,1.328,0,0,1.3265,1.3265,0,0,0,0,0,0,0,0,1.3337,1.3336,1.3323,1.3321,1.3319,1.3305,1.3313,1.3304,1.3289,1.33,1.3287,1.3287,1.328,1.3278,1.3276,1.3279,1.3278,1.3265,1.3265,1.3265,1.3265,0,0,0,0,0,0,0,1.3338,1.3337,1.3329,1.3323,1.3321,1.3313,1.331,1.3311,1.3294,1.3299,1.3297,1.3295,1.3278,1.3276,1.3276,1.3277,1.3265,1.3265,1.3265,1.3265,1.3287,1.3288,0,0,0,0,0,0,1.3341,1.3338,1.333,1.3329,1.3327,1.3313,1.3311,1.331,1.3294,1.3291,1.3296,1.3294,1.3277,1.3276,1.3275,1.3288,1.3265,1.3265,1.3265,1.3287,1.3287,1.3288,0,0,0,0,0,0,1.3342,1.3341,1.3331,1.3333,1.3331,1.3314,1.3314,1.331,1.3308,1.3292,1.3288,1.3297,1.3276,1.3275,1.3278,1.3287,1.3265,1.3265,1.3286,1.3287,1.3288,1.3315,0,0,0,0,0,0,1.3342,1.3341,1.3347,1.3333,1.3331,1.3335,1.3314,1.331,1.3308,1.3306,1.3292,1.3289,1.3276,1.3278,1.3278,1.3286,1.3265,1.3285,1.3286,1.3287,1.3314,1.3317,1.332,0,0,0,0,0,1.3343,1.3356,1.3348,1.3347,1.3338,1.3336,1.3335,1.332,1.3309,1.3314,1.3303,1.3289,1.3286,1.3279,1.3278,1.3286,1.3284,1.3286,1.3287,1.3312,1.3317,1.332,0,0,0,0,0,0,1.3372,1.3354,1.3344,1.3354,1.3347,1.3331,1.3337,1.3325,1.3321,1.3318,1.3299,1.3296,1.3301,1.3294,1.3287,1.3297,1.3283,1.3284,1.3302,1.3306,1.3309,1.3311,1.3265,0,0,0,0,0,1.3379,1.338,1.3364,1.3374,1.3371,1.3355,1.3353,1.3342,1.3334,1.3331,1.332,1.3312,1.3309,1.3307,1.3303,1.3312,1.3308,1.3317,1.3321,1.3324,1.3325,1.3327,1.333,1.3293,1.3293,1.3293,0,0,1.3395,1.3385,1.3387,1.3379,1.3373,1.3373,1.3352,1.3354,1.3353,1.3331,1.3333,1.3325,1.3314,1.332,1.3322,1.3314,1.3334,1.3326,1.3328,1.3328,1.3329,1.3332,1.3335,1.3294,1.3294,1.3294,0,0,1.3423,1.3416,1.3423,1.3416,1.3406,1.3395,1.3396,1.3382,1.3376,1.3378,1.336,1.3359,1.3354,1.3347,1.3342,1.3365,1.3352,1.3365,1.3382,1.3384,1.3387,1.339,1.3396,1.3399,1.3366,1.3366,1.3366,0,1.3443,1.3443,1.3427,1.3429,1.3426,1.3405,1.3411,1.3405,1.3394,1.3391,1.3383,1.3375,1.3367,1.3369,1.3375,1.3373,1.3372,1.3366,1.3388,1.339,1.3392,1.3398,1.3401,1.3368,1.3368,1.3367,1.3367,0,1.3468,1.3468,1.3475,1.3464,1.3461,1.3465,1.3448,1.3447,1.3436,1.3425,1.3426,1.3415,1.3408,1.3408,1.3397,1.3408,1.3403,1.3392,1.3376,1.3398,1.3403,1.3405,1.337,1.3369,1.3369,1.3369,0,0,1.3515,1.3494,1.3497,1.3491,1.3477,1.3476,1.3478,1.3471,1.347,1.3463,1.3462,1.3458,1.3447,1.3442,1.343,1.3432,1.3448,1.342,1.3419,1.3424,1.3457,1.3465,1.3468,1.3439,1.344,1.344,1.3458,0,1.3539,1.3542,1.3527,1.3533,1.3532,1.3511,1.3513,1.3504,1.3493,1.349,1.3478,1.3475,1.3461,1.3458,1.3459,1.3446,1.3454,1.3445,1.3438,1.3438,1.344,1.3471,1.348,1.3497,1.346,1.346,1.346,0,1.3568,1.3562,1.3568,1.3552,1.3551,1.3553,1.3544,1.3542,1.353,1.3522,1.3516,1.3502,1.3501,1.3487,1.3484,1.3478,1.3474,1.3467,1.3467,1.3465,1.345,1.3469,1.3503,1.3505,1.3464,1.3463,1.3463,0,1.36,1.3593,1.3595,1.3591,1.3573,1.3574,1.3566,1.3554,1.355,1.3542,1.3539,1.3531,1.3527,1.352,1.3503,1.3495,1.3502,1.3487,1.3494,1.3494,1.3496,1.3496,1.3528,1.3495,1.3495,1.3495,1.3495,0,1.3628,1.3632,1.3609,1.361,1.3613,1.3595,1.3599,1.3589,1.3578,1.3576,1.3558,1.3556,1.3534,1.353,1.3517,1.3515,1.3514,1.3506,1.3502,1.3507,1.3508,1.3504,1.3502,1.3496,1.3496,1.3495,1.3495,0,1.3663,1.3648,1.3649,1.3631,1.3627,1.363,1.3614,1.3614,1.3602,1.36,1.3598,1.3579,1.3572,1.3555,1.3544,1.3535,1.3536,1.353,1.354,1.3538,1.3545,1.3544,1.3576,1.3578,1.3545,1.3545,1.3545,0,1.3682,1.3685,1.3667,1.3665,1.3658,1.3654,1.365,1.3631,1.3627,1.3613,1.3614,1.3606,1.3598,1.3588,1.3573,1.3563,1.3556,1.3567,1.3555,1.3559,1.3554,1.3554,1.3553,1.357,1.3571,1.3571,1.3571,0,1.3716,1.3708,1.3703,1.3694,1.3689,1.3682,1.3673,1.3672,1.3651,1.3647,1.364,1.3634,1.3622,1.3613,1.3601,1.3592,1.3578,1.3576,1.3576,1.3581,1.3586,1.3582,1.3547,1.3575,1.3575,1.3574,1.3574,1.3574,1.3743,1.3743,1.3731,1.3725,1.3716,1.3708,1.3706,1.3694,1.3688,1.3677,1.3666,1.3659,1.3645,1.3628,1.3619,1.3613,1.3606,1.3608,1.3608,1.3608,1.361,1.3588,1.3611,1.3611,1.3611,1.3611,1.3611,0,1.3775,1.3765,1.376,1.3748,1.3743,1.373,1.3719,1.3715,1.371,1.3699,1.3691,1.3682,1.3673,1.3656,1.3646,1.3644,1.3636,1.3641,1.3641,1.3638,1.3618,1.3617,1.3647,1.3647,1.3647,1.3647,1.3647,1.3647,1.3791,1.379,1.378,1.3775,1.3765,1.3759,1.3753,1.3745,1.3736,1.3726,1.3719,1.3708,1.3694,1.3681,1.3672,1.3667,1.3663,1.367,1.3663,1.3644,1.364,1.3637,1.3636,1.367,1.367,1.3684,1.3684,1.3684]}]]